Location: Unnamed
(51.8936°N, 11.0665°E)
Time: 17:05:50
(UTC+02:00)

UKube-1 - Pass Details

Date: 25 September 2021
Orbit: 611 x 617 km, 98.4° (Epoch: 28 October)

Event Time Altitude Azimuth Distance (km) Brightness Sun altitude
Rises 21:45:12 0° 19° (NNE) 2,892 ? -24.1°
Reaches altitude 10° 21:47:27 10° 25° (NNE) 1,983 ? -24.4°
Enters shadow 21:48:51 20° 32° (NNE) 1,455 ? -24.6°
